Lid_Strength_Index
4 3 3 5 6 7 7 6 6 6 6 6 6 7 7 8 9 8 8 8 8 8 9 8 9 9 9 9 9 9 9 9 7 7 8 7 7 7 8 9 9 9 8
5 4 4 3 6 7 7 7 6 6 6 6 6 7 7 7 8 8 8 7 8 8 8 9 9 9 9 10 9 9 10 10 10 9 9 10 8 8 7 9 9 10 9
6 5 4 3 3 7 8 7 6 6 6 6 6 6 6 7 8 9 9 8 8 7 8 9 9 9 9 9 10 9 10 11 11 10 9 12 12 11 10 9 10 10 10
5 5 4 4 3 4 6 6 7 7 5 5 6 6 6 8 8 8 8 8 8 8 8 8 9 8 8 8 8 8 9 10 11 11 10 11 11 12 13 10 9 10 10
5 5 4 4 3 2 3 6 6 7 6 6 5 6 7 7 7 7 8 8 8 8 8 8 8 9 8 8 9 11 10 10 11 11 12 12 12 13 13 13 12 11 11
5 5 4 3 3 3 2 3 6 7 7 6 7 6 6 7 7 7 8 8 8 8 8 7 8 9 10 9 10 10 11 11 11 12 12 12 13 13 14 15 15 14 13
6 6 5 4 4 4 4 3 4 7 7 6 6 7 7 6 7 7 7 8 8 9 8 8 9 9 9 9 10 10 11 11 12 12 12 12 13 12 13 14 16 16 16
8 6 5 4 4 3 3 3 4 5 7 7 7 6 7 7 6 6 7 7 7 8 8 8 8 9 9 10 11 10 11 12 12 12 12 13 14 14 14 14 16 17 16
8 6 5 5 5 4 3 2 2 4 6 6 6 6 6 7 7 6 6 7 7 8 8 8 8 9 9 9 10 10 11 12 13 14 14 14 14 14 14 14 14 15 18
8 8 7 6 5 4 3 2 2 3 5 5 6 6 6 6 7 7 8 7 7 8 8 9 9 10 10 10 11 11 13 13 14 14 15 14 14 14 14 13 13 14 15
8 8 7 6 6 6 5 3 2 2 3 5 6 6 6 6 6 7 7 8 8 8 8 9 10 10 11 11 12 13 14 14 14 14 14 15 14 14 14 14 14 14 14
8 7 7 6 6 5 5 5 4 3 3 3 5 5 5 5 6 7 8 8 8 8 9 10 10 11 12 13 14 14 14 15 15 15 15 15 14 14 14 14 15 15 14
10 9 7 6 6 6 6 5 5 3 3 4 5 5 6 5 6 7 8 8 9 9 10 10 11 12 13 13 14 15 15 15 15 15 15 15 14 15 15 15 15 14 13
12 12 11 8 7 6 5 5 5 4 3 5 5 6 6 6 7 7 7 8 9 10 11 11 12 13 13 14 15 15 15 15 15 14 14 14 14 15 15 14 15 14 16
12 12 12 10 8 7 6 5 6 6 5 5 5 5 6 5 6 7 8 9 9 10 11 12 13 14 14 14 15 14 15 15 15 14 14 13 12 11 12 13 14 15 15
12 12 11 10 8 8 7 7 7 7 6 6 6 5 5 6 6 7 7 9 11 12 12 14 14 14 14 12 11 13 14 14 14 14 14 13 11 11 11 11 11 12 15
11 11 11 10 9 8 8 9 9 7 7 7 7 7 7 7 7 8 9 10 11 12 12 13 14 14 13 11 10 11 13 15 14 14 13 13 12 12 14 12 11 11 10
10 10 10 10 8 8 9 10 10 9 8 8 8 8 8 9 10 9 10 11 12 13 13 14 15 14 13 10 11 11 14 14 13 13 13 14 14 14 13 13 13 12 12
10 10 10 10 9 8 9 11 11 11 11 9 9 9 9 11 11 12 13 13 14 14 15 15 15 14 13 11 12 13 14 14 14 13 13 14 14 12 10 12 13 13 12
9 9 9 9 8 9 10 10 11 12 12 11 9 9 10 11 12 13 13 13 13 14 14 15 15 13 15 11 11 12 14 14 14 14 14 11 12 10 10 12 12 13 12
8 8 8 8 8 8 10 10 11 11 10 10 10 10 10 11 12 12 12 13 13 14 15 15 15 14 13 12 11 11 13 14 14 14 14 13 11 10 10 9 11 11 9
8 8 9 9 8 7 9 10 10 9 10 10 11 11 11 10 11 12 13 13 14 15 15 16 16 15 14 12 11 11 12 12 13 14 13 13 11 10 10 10 8 8 9
8 8 8 9 8 7 7 9 10 11 11 11 12 12 13 13 13 14 14 14 14 15 16 16 16 15 14 14 11 11 11 11 13 13 12 10 10 10 10 9 8 9 12
8 7 8 9 9 8 7 7 9 10 12 13 13 14 14 14 14 14 14 15 16 16 16 16 16 16 15 14 14 13 13 11 12 11 13 11 11 10 10 11 12 12 12
7 7 8 8 8 8 8 10 10 11 12 13 14 15 14 15 15 14 14 14 13 13 15 15 15 15 15 14 12 13 13 14 13 12 13 13 13 13 13 13 13 13 13
7 7 7 8 8 8 9 10 10 11 11 13 14 14 14 14 14 14 14 11 12 11 12 11 12 12 11 10 10 11 11 11 11 14 14 14 14 14 14 14 14 13 13